Change the Weather History Date:

Sunday, April 27, 2014

  Actual Average Record
Temperature  
Mean Temperature 52 °F -  
Max Temperature 59 °F 64 °F 77 °F (2013)
Min Temperature 44 °F 37 °F 32 °F (2013)
Degree Days  
Heating Degree Days 14    
Growing Degree Days 2 (Base 50)    
Moisture  
Dew Point 40 °F    
Average Humidity 68    
Maximum Humidity 76    
Minimum Humidity 51    
Precipitation  
Precipitation 0.01 in - - ()
Sea Level Pressure  
Sea Level Pressure 29.35 in    
Wind  
Wind Speed 26 mph (NNW)    
Max Wind Speed 53 mph    
Max Gust Speed 66 mph    
Visibility 9 miles    
Events Rain , Thunderstorm    
Averages and records for this station are not official NWS values.
T = Trace of Precipitation, MM = Missing Value Source: NWS Daily Summary

Daily Weather History Graph

Daily Weather History Graph

Search for Another Location

Airport or City:

Trip Planner

Search our weather history database for the weather conditions in past years. The results will help you decide how hot, cold, wet, or windy it might be!

Date:

Astronomy

Apr. 27, 2014 Rise Set
Actual Time 5:57 AM MDT 7:44 PM MDT
Civil Twilight 5:27 AM MDT 8:14 PM MDT
Nautical Twilight 4:52 AM MDT 8:50 PM MDT
Astronomical Twilight 4:14 AM MDT 9:28 PM MDT
Moon 4:59 AM MDT (4/27) 6:20 PM MDT (4/27)
Length of Visible Light 14h 46m
Length of Day
13h 47m
Waning Crescent, 3% of the Moon is Illuminated
Apr 27
Waning Crescent
Apr 29
New
May 6
First Quarter
May 14
Full
May 21
Last Quarter

Hourly Weather History & Observations

Time (MDT) Temp. Windchill Dew Point Humidity Pressure Visibility Wind Dir Wind Speed Gust Speed Precip Events Conditions
12:10 AM 59.0 °F - 46.4 °F 63% 29.25 in 10.0 mi NNW 16.1 mph 25.3 mph N/A   Clear
12:30 AM 59.0 °F - 46.4 °F 63% 29.26 in 10.0 mi North 17.3 mph 21.9 mph N/A   Clear
12:50 AM 59.0 °F - 46.4 °F 63% 29.26 in 10.0 mi NNW 25.3 mph 31.1 mph N/A   Scattered Clouds
1:10 AM 57.2 °F - 44.6 °F 63% 29.27 in 10.0 mi NNW 26.5 mph 32.2 mph N/A   Scattered Clouds
1:30 AM 57.2 °F - 44.6 °F 63% 29.27 in 10.0 mi NNW 24.2 mph 38.0 mph N/A   Scattered Clouds
1:50 AM 55.4 °F - 44.6 °F 67% 29.27 in 10.0 mi NNW 25.3 mph 47.2 mph N/A   Scattered Clouds
2:10 AM 55.4 °F - 42.8 °F 63% 29.27 in 10.0 mi NNW 23.0 mph 40.3 mph N/A   Clear
2:30 AM 55.4 °F - 42.8 °F 63% 29.27 in 10.0 mi NNW 25.3 mph 32.2 mph N/A   Clear
2:50 AM 53.6 °F - 44.6 °F 72% 29.27 in 10.0 mi NNW 23.0 mph 33.4 mph N/A   Clear
3:10 AM 53.6 °F - 44.6 °F 72% 29.27 in 10.0 mi NNW 24.2 mph 34.5 mph N/A   Clear
3:30 AM 53.6 °F - 44.6 °F 72% 29.27 in 10.0 mi NNW 21.9 mph 31.1 mph N/A   Clear
3:50 AM 51.8 °F - 42.8 °F 71% 29.27 in 10.0 mi North 18.4 mph 26.5 mph N/A   Clear
4:10 AM 53.6 °F - 42.8 °F 67% 29.27 in 10.0 mi North 16.1 mph 27.6 mph N/A   Clear
4:30 AM 53.6 °F - 42.8 °F 67% 29.29 in 10.0 mi North 12.7 mph 21.9 mph N/A   Clear
4:50 AM 53.6 °F - 42.8 °F 67% 29.29 in 10.0 mi North 15.0 mph 23.0 mph N/A   Clear
5:10 AM 53.6 °F - 42.8 °F 67% 29.29 in 10.0 mi North 15.0 mph - N/A   Clear
5:30 AM 53.6 °F - 42.8 °F 67% 29.28 in 10.0 mi North 17.3 mph 25.3 mph N/A   Clear
5:50 AM 51.8 °F - 42.8 °F 71% 29.28 in 10.0 mi North 8.1 mph - N/A   Scattered Clouds
6:10 AM 51.8 °F - 44.6 °F 76% 29.26 in 10.0 mi North 15.0 mph - N/A Thunderstorm Clear
6:30 AM 51.8 °F - 44.6 °F 76% 29.25 in 10.0 mi North 19.6 mph 27.6 mph N/A   Scattered Clouds
6:50 AM 51.8 °F - 44.6 °F 76% 29.27 in 10.0 mi NNE 10.4 mph 17.3 mph N/A   Scattered Clouds
7:10 AM 51.8 °F - 44.6 °F 76% 29.27 in 10.0 mi North 17.3 mph 27.6 mph N/A   Scattered Clouds
7:30 AM 51.8 °F - 44.6 °F 76% 29.26 in 10.0 mi North 19.6 mph 26.5 mph N/A   Overcast
7:50 AM 53.6 °F - 42.8 °F 67% 29.27 in 10.0 mi North 31.1 mph 38.0 mph N/A   Mostly Cloudy
8:10 AM 53.6 °F - 42.8 °F 67% 29.26 in 10.0 mi North 29.9 mph 34.5 mph N/A   Mostly Cloudy
8:30 AM 53.6 °F - 42.8 °F 67% 29.24 in 10.0 mi North 34.5 mph 42.6 mph N/A   Overcast
8:50 AM 53.6 °F - 42.8 °F 67% 29.24 in 10.0 mi North 27.6 mph 43.7 mph N/A   Overcast
9:10 AM 55.4 °F - 41.0 °F 58% 29.24 in 10.0 mi North 32.2 mph 41.4 mph N/A   Overcast
9:30 AM 51.8 °F - 42.8 °F 71% 29.25 in 10.0 mi North 32.2 mph 41.4 mph N/A Rain Light Rain
10:10 AM 51.8 °F - 42.8 °F 71% 29.26 in 10.0 mi NE 16.1 mph 27.6 mph N/A Rain , Thunderstorm Light Thunderstorms and Rain
10:30 AM 51.8 °F - 44.6 °F 76% 29.25 in 10.0 mi NNE 11.5 mph 27.6 mph 0.01 in Rain , Thunderstorm Light Thunderstorms and Rain
10:50 AM 50.0 °F - 42.8 °F 76% 29.25 in 10.0 mi NE 4.6 mph 18.4 mph 0.01 in Thunderstorm Thunderstorm
11:10 AM 51.8 °F - 42.8 °F 71% 29.20 in 7.0 mi North 36.8 mph 52.9 mph N/A Thunderstorm Thunderstorm
11:25 AM 51.8 °F - 42.8 °F 71% 29.22 in 7.0 mi North 39.1 mph 54.1 mph N/A Thunderstorm Thunderstorm
1:10 PM 46.4 °F 36.4 °F 37.4 °F 71% 29.30 in 10.0 mi NNW 35.7 mph 55.2 mph N/A   Overcast
1:30 PM 46.4 °F 35.3 °F 37.4 °F 71% 29.30 in 10.0 mi NNW 44.9 mph 52.9 mph N/A   Overcast
2:10 PM 50.0 °F - 37.4 °F 62% 29.31 in 5.0 mi NNW 49.5 mph 59.8 mph N/A   Haze
2:30 PM 53.6 °F - 37.4 °F 54% 29.33 in 4.0 mi NNW 44.9 mph 59.8 mph N/A   Haze
2:50 PM 53.6 °F - 35.6 °F 51% 29.32 in 4.0 mi NNW 48.3 mph 62.1 mph N/A   Haze
3:10 PM 53.6 °F - 35.6 °F 51% 29.33 in 4.0 mi NNW 48.3 mph 65.6 mph N/A   Haze
3:30 PM 50.0 °F - 35.6 °F 58% 29.34 in 5.0 mi NNW 49.5 mph 62.1 mph N/A   Haze
3:50 PM 51.8 °F - 35.6 °F 54% 29.34 in 3.0 mi North 52.9 mph 65.6 mph N/A   Haze
4:10 PM 50.0 °F - 35.6 °F 58% 29.36 in 5.0 mi NNW 49.5 mph 59.8 mph N/A   Haze
4:30 PM 50.0 °F - 35.6 °F 58% 29.36 in 5.0 mi NNW 47.2 mph 64.4 mph N/A   Haze
4:50 PM 46.4 °F 34.8 °F 35.6 °F 66% 29.37 in 10.0 mi NNW 50.6 mph 62.1 mph N/A   Overcast
5:10 PM 46.4 °F 35.0 °F 35.6 °F 66% 29.38 in 10.0 mi NNW 48.3 mph 61.0 mph N/A   Mostly Cloudy
5:30 PM 46.4 °F 36.1 °F 35.6 °F 66% 29.40 in 10.0 mi NNW 38.0 mph 49.5 mph N/A   Scattered Clouds
5:50 PM 46.4 °F 36.3 °F 35.6 °F 66% 29.42 in 10.0 mi NNW 36.8 mph 49.5 mph N/A   Scattered Clouds
6:10 PM 44.6 °F 33.3 °F 35.6 °F 71% 29.44 in 10.0 mi NNW 40.3 mph 50.6 mph N/A   Mostly Cloudy
6:30 PM 44.6 °F 33.9 °F 35.6 °F 71% 29.45 in 10.0 mi NNW 35.7 mph 46.0 mph N/A   Overcast
6:50 PM 44.6 °F 33.5 °F 35.6 °F 71% 29.45 in 10.0 mi NNW 39.1 mph 49.5 mph N/A   Overcast
7:10 PM 44.6 °F 34.2 °F 35.6 °F 71% 29.46 in 10.0 mi NNW 33.4 mph 47.2 mph N/A   Mostly Cloudy
7:30 PM 44.6 °F 34.2 °F 35.6 °F 71% 29.47 in 10.0 mi NNW 33.4 mph 41.4 mph N/A   Mostly Cloudy
7:50 PM 44.6 °F 33.6 °F 35.6 °F 71% 29.47 in 10.0 mi NNW 38.0 mph 44.9 mph N/A   Scattered Clouds
8:10 PM 44.6 °F 33.1 °F 35.6 °F 71% 29.46 in 10.0 mi NNW 42.6 mph 54.1 mph N/A   Scattered Clouds
8:30 PM 44.6 °F 33.2 °F 35.6 °F 71% 29.47 in 10.0 mi NNW 41.4 mph 59.8 mph N/A   Mostly Cloudy
8:50 PM 44.6 °F 33.9 °F 35.6 °F 71% 29.50 in 10.0 mi NNW 35.7 mph 44.9 mph N/A   Overcast
9:10 PM 44.6 °F 34.2 °F 35.6 °F 71% 29.52 in 10.0 mi NNW 33.4 mph 42.6 mph N/A   Overcast
9:30 PM 44.6 °F 34.4 °F 35.6 °F 71% 29.53 in 10.0 mi North 32.2 mph 39.1 mph N/A   Overcast
9:50 PM 44.6 °F 34.9 °F 35.6 °F 71% 29.54 in 10.0 mi North 28.8 mph 35.7 mph N/A   Overcast
10:10 PM 44.6 °F 35.3 °F 35.6 °F 71% 29.55 in 10.0 mi NNW 26.5 mph 33.4 mph N/A   Overcast
10:30 PM 44.6 °F 34.9 °F 35.6 °F 71% 29.56 in 10.0 mi North 28.8 mph 38.0 mph N/A   Overcast
10:50 PM 44.6 °F 36.9 °F 35.6 °F 71% 29.56 in 10.0 mi North 18.4 mph 31.1 mph N/A   Overcast
11:10 PM 44.6 °F 37.8 °F 35.6 °F 71% 29.56 in 10.0 mi NNW 15.0 mph 19.6 mph N/A   Overcast
11:30 PM 44.6 °F 35.9 °F 35.6 °F 71% 29.55 in 10.0 mi NNW 23.0 mph 27.6 mph N/A   Overcast
11:50 PM 44.6 °F 35.5 °F 35.6 °F 71% 29.54 in 10.0 mi NNW 25.3 mph 31.1 mph N/A   Overcast